Regional Weather Roundup
Issued by NWS Cleveland, OH

Home | Current Version | Previous Version | Graphics & Text | Print | Product List | Glossary On
Versions: 1 2 3 4 5 6 7 8 9 10 11 12 13 14 15 16 17 18 19 20 21 22 23 24 25 26 27 28 29 30 31 32 33 34 35 36 37 38 39 40 41 42 43 44 45 46 47 48 49 50
000
ASUS41 KCLE 041602
RWRCLE
OHIO REGIONAL WEATHER ROUNDUP
NATIONAL WEATHER SERVICE CLEVELAND, OH
1200 PM EDT TUE AUG 04 2015

NOTE: "FAIR" INDICATES FEW OR NO CLOUDS BELOW 12,000 FEET WITH NO
SIGNIFICANT WEATHER AND/OR OBSTRUCTIONS TO VISIBILITY.

OHZ001>008-015>018-024>027-034-035-043-044-041700-
   NORTHWEST OHIO

CITY           SKY/WX    TMP DP  RH WIND       PRES   REMARKS
DEFIANCE       SUNNY     79  59  50 SW8       29.97S
FINDLAY        SUNNY     78  57  48 SW9       29.97S
TOLEDO EXPRESS SUNNY     76  58  53 W13       29.96R
TOLEDO EXEC    SUNNY     78  57  48 SW12      29.96S
LIMA           SUNNY     77  55  46 SW12      29.99S
$$

OHZ009>014-019>023-028>033-038-089-041700-
   NORTHEAST OHIO

CITY           SKY/WX    TMP DP  RH WIND       PRES   REMARKS
CLE-HOPKINS    MOSUNNY   77  53  43 SW9       29.99S
CLE-LAKEFRONT  SUNNY     76  55  48 W8        29.95S
CUY CO. ARPT   MOSUNNY   77  54  44 NW14      29.97F
LORAIN-ELYRIA  SUNNY     75  54  47 W9        29.98S
ASHTABULA      MOSUNNY   76  59  55 W14       29.97S
AKRON-CANTON   MOSUNNY   79  52  38 NW7       29.99S
WOOSTER        SUNNY     77  54  44 VRB6      29.99S
MANSFIELD      SUNNY     77  54  44 W8        30.00R
YOUNGSTOWN     MOSUNNY   77  55  46 W10       29.98S
$$

OHZ042-051>053-060>062-070>072-077>081-041700-
  SOUTHWEST OHIO

CITY           SKY/WX    TMP DP  RH WIND       PRES   REMARKS
CINC-COVINGTON PTSUNNY   80  64  58 W10       30.00S
CINC-LUNKEN    MOSUNNY   81  67  62 W8        29.99S
HAMILTON       MOSUNNY   80  67  64 VRB5      30.00S
DAYTON         MOSUNNY   78  55  44 W6        30.01S
WRIGHT-PAT AFB SUNNY     78  56  45 S3        29.99F
DAYTON GENERAL SUNNY     78  56  46 SW5       29.99F
WILMINGTON     SUNNY     78  59  51 S5        30.00S
$$

OHZ036-037-039>041-045>050-054>059-063>069-073>076-082>088-041700-
  CENTRAL AND SOUTHEAST OHIO

CITY           SKY/WX    TMP DP  RH WIND       PRES   REMARKS
COLUMBUS       MOSUNNY   78  53  41 SW3       29.99S
OSU AIRPORT    MOSUNNY   78  56  46 S8        29.99S
BOLTON FIELD   MOSUNNY   75  57  53 S3        30.00S
RICKENBACK AFB MOSUNNY   77  59  54 SW3       29.99F
NEWARK         MOSUNNY   78  55  44 SW7       30.00R
MARION         SUNNY     77  56  48 SW7       30.00R
LANCASTER      LGT RAIN  78  54  43 VRB3      30.00S
ZANESVILLE     PTSUNNY   78  52  40 VRB5      30.00S
NEW PHILLY     SUNNY     75  58  55 CALM      30.00S
$$


USA.gov is the U.S. government's official web portal to all federal, state and local government web resources and services.